Station Historical Data
Daily Summary for January 9, 2017 Units:  English    Metric   Both
« Previous Day
Next Day »
Daily Weekly Monthly Yearly Custom
  High: Low: Average:
Temperature: 26.6 °F 14.3 °F 19.5 °F
Dew Point: 14.8 °F 4.4 °F 9.1 °F
Humidity: 78% 52% 64%
Wind Speed: 20.0mph 0.0mph 4.9mph
Wind Gust: 21.0mph - -
Wind- - SSW
Pressure: 30.63 in 30.40 in -
Precipitation: 0.00 in    
Historical Graphs
 
 
Tabular Data for January 9, 2017
Time Temperature Dew Point Pressure Wind Wind Speed Wind Gust Humidity Rainfall Rate (Hourly)
00:04 15.2 °F 7.2 °F 30.63 in West 3.0 mph 6.0 mph 70% 0.00 in
00:14 15.8 °F 7.1 °F 30.63 in West 2.0 mph 9.0 mph 68% 0.00 in
00:19 16.1 °F 6.7 °F 30.63 in SSW 4.0 mph 9.0 mph 66% 0.00 in
00:24 16.3 °F 6.2 °F 30.62 in WSW 4.0 mph 10.0 mph 64% 0.00 in
00:29 16.4 °F 6.3 °F 30.62 in WSW 5.0 mph 10.0 mph 64% 0.00 in
00:34 16.4 °F 6.0 °F 30.62 in WSW 5.0 mph 9.0 mph 63% 0.00 in
00:39 16.4 °F 6.0 °F 30.62 in WSW 5.0 mph 10.0 mph 63% 0.00 in
00:44 16.4 °F 6.0 °F 30.62 in West 4.0 mph 6.0 mph 63% 0.00 in
00:49 16.2 °F 5.8 °F 30.62 in West 4.0 mph 9.0 mph 63% 0.00 in
00:54 16.2 °F 5.5 °F 30.62 in West 4.0 mph 9.0 mph 62% 0.00 in
00:59 16.0 °F 4.9 °F 30.61 in West 5.0 mph 9.0 mph 61% 0.00 in
01:04 15.8 °F 4.7 °F 30.61 in WNW 4.0 mph 9.0 mph 61% 0.00 in
01:09 15.5 °F 4.8 °F 30.61 in WNW 3.0 mph 8.0 mph 62% 0.00 in
01:14 15.3 °F 4.6 °F 30.61 in West 1.0 mph 6.0 mph 62% 0.00 in
01:19 15.1 °F 4.4 °F 30.61 in West 1.0 mph 4.0 mph 62% 0.00 in
01:24 14.9 °F 4.6 °F 30.61 in West 3.0 mph 4.0 mph 63% 0.00 in
01:29 14.8 °F 4.8 °F 30.61 in West 2.0 mph 4.0 mph 64% 0.00 in
01:34 15.0 °F 5.0 °F 30.61 in West 2.0 mph 5.0 mph 64% 0.00 in
01:39 15.3 °F 5.3 °F 30.61 in WSW 2.0 mph 4.0 mph 64% 0.00 in
01:44 15.6 °F 5.6 °F 30.61 in Calm   2.0 mph 64% 0.00 in
01:49 15.6 °F 5.9 °F 30.61 in Calm   1.0 mph 65% 0.00 in
01:54 15.7 °F 6.3 °F 30.61 in NW 1.0 mph 3.0 mph 66% 0.00 in
01:59 15.9 °F 6.5 °F 30.61 in West 2.0 mph 3.0 mph 66% 0.00 in
02:04 16.2 °F 6.5 °F 30.61 in West 2.0 mph 3.0 mph 65% 0.00 in
02:09 16.2 °F 6.8 °F 30.61 in West 1.0 mph 3.0 mph 66% 0.00 in
02:14 16.4 °F 7.0 °F 30.61 in Calm   3.0 mph 66% 0.00 in
02:19 16.5 °F 6.8 °F 30.61 in West 1.0 mph 3.0 mph 65% 0.00 in
02:24 16.7 °F 7.0 °F 30.61 in West 1.0 mph 4.0 mph 65% 0.00 in
02:29 16.7 °F 7.3 °F 30.61 in West 2.0 mph 4.0 mph 66% 0.00 in
02:34 16.8 °F 6.7 °F 30.61 in WSW 3.0 mph 4.0 mph 64% 0.00 in
02:39 16.9 °F 6.8 °F 30.61 in WSW 1.0 mph 4.0 mph 64% 0.00 in
02:49 16.8 °F 7.4 °F 30.61 in South 1.0 mph 4.0 mph 66% 0.00 in
02:54 16.8 °F 7.7 °F 30.61 in Calm   3.0 mph 67% 0.00 in
02:59 16.7 °F 7.6 °F 30.60 in South 2.0 mph 4.0 mph 67% 0.00 in
03:04 16.7 °F 8.0 °F 30.60 in South 3.0 mph 4.0 mph 68% 0.00 in
03:09 16.7 °F 8.3 °F 30.60 in South 3.0 mph 4.0 mph 69% 0.00 in
03:14 16.6 °F 7.9 °F 30.60 in SSE 3.0 mph 7.0 mph 68% 0.00 in
03:19 16.3 °F 8.2 °F 30.60 in South 4.0 mph 7.0 mph 70% 0.00 in
03:24 16.1 °F 8.7 °F 30.60 in South 3.0 mph 7.0 mph 72% 0.00 in
03:29 16.1 °F 9.0 °F 30.60 in South 4.0 mph 6.0 mph 73% 0.00 in
03:34 16.1 °F 9.3 °F 30.60 in SSE 1.0 mph 5.0 mph 74% 0.00 in
03:39 16.1 °F 9.6 °F 30.60 in South 1.0 mph 5.0 mph 75% 0.00 in
03:44 16.1 °F 9.9 °F 30.60 in South 3.0 mph 5.0 mph 76% 0.00 in
03:49 16.1 °F 10.2 °F 30.60 in South 3.0 mph 5.0 mph 77% 0.00 in
03:54 15.9 °F 10.0 °F 30.60 in SSW 3.0 mph 4.0 mph 77% 0.00 in
03:59 16.0 °F 10.3 °F 30.60 in South 2.0 mph 4.0 mph 78% 0.00 in
04:04 16.0 °F 10.3 °F 30.60 in South 2.0 mph 3.0 mph 78% 0.00 in
04:09 16.0 °F 10.3 °F 30.60 in South 2.0 mph 5.0 mph 78% 0.00 in
04:14 16.0 °F 10.3 °F 30.60 in South 2.0 mph 5.0 mph 78% 0.00 in
04:19 15.9 °F 10.3 °F 30.60 in South 2.0 mph 5.0 mph 78% 0.00 in
04:24 16.0 °F 10.3 °F 30.59 in South 3.0 mph 6.0 mph 78% 0.00 in
04:29 16.0 °F 10.3 °F 30.59 in South 4.0 mph 6.0 mph 78% 0.00 in
04:34 16.0 °F 10.3 °F 30.59 in South 1.0 mph 7.0 mph 78% 0.00 in
04:39 16.1 °F 10.4 °F 30.59 in SSE 5.0 mph 7.0 mph 78% 0.00 in
04:44 16.4 °F 10.7 °F 30.59 in South 4.0 mph 9.0 mph 78% 0.00 in
04:49 16.5 °F 10.5 °F 30.59 in SSW 5.0 mph 9.0 mph 77% 0.00 in
04:54 16.6 °F 10.3 °F 30.58 in SSE 8.0 mph 11.0 mph 76% 0.00 in
04:59 16.6 °F 10.3 °F 30.58 in SSW 7.0 mph 12.0 mph 76% 0.00 in
05:04 16.5 °F 10.3 °F 30.58 in South 4.0 mph 7.0 mph 76% 0.00 in
05:09 16.5 °F 10.0 °F 30.58 in SSE 6.0 mph 9.0 mph 75% 0.00 in
05:14 16.4 °F 9.9 °F 30.58 in SSW 5.0 mph 10.0 mph 75% 0.00 in
05:19 16.3 °F 9.5 °F 30.58 in South 6.0 mph 13.0 mph 74% 0.00 in
05:24 16.2 °F 9.4 °F 30.58 in SSW 6.0 mph 14.0 mph 74% 0.00 in
05:29 16.2 °F 9.4 °F 30.58 in SSW 6.0 mph 14.0 mph 74% 0.00 in
05:34 16.1 °F 9.0 °F 30.58 in South 4.0 mph 11.0 mph 73% 0.00 in
05:39 16.0 °F 9.2 °F 30.58 in SSW 4.0 mph 9.0 mph 74% 0.00 in
05:44 15.9 °F 9.1 °F 30.59 in SSW 4.0 mph 9.0 mph 74% 0.00 in
05:49 15.8 °F 8.7 °F 30.59 in SSW 5.0 mph 11.0 mph 73% 0.00 in
05:54 15.7 °F 8.6 °F 30.58 in SSW 6.0 mph 10.0 mph 73% 0.00 in
05:59 15.6 °F 8.5 °F 30.58 in SSW 2.0 mph 9.0 mph 73% 0.00 in
06:04 15.6 °F 8.2 °F 30.58 in South 6.0 mph 14.0 mph 72% 0.00 in
06:09 15.4 °F 7.7 °F 30.58 in SSW 7.0 mph 14.0 mph 71% 0.00 in
06:14 15.4 °F 7.7 °F 30.59 in South 5.0 mph 12.0 mph 71% 0.00 in
06:19 15.3 °F 7.3 °F 30.59 in SSW 9.0 mph 11.0 mph 70% 0.00 in
06:24 15.3 °F 7.3 °F 30.59 in SSW 6.0 mph 12.0 mph 70% 0.00 in
06:29 15.2 °F 6.8 °F 30.59 in SSW 6.0 mph 12.0 mph 69% 0.00 in
06:34 15.1 °F 6.8 °F 30.59 in SSW 6.0 mph 14.0 mph 69% 0.00 in
06:39 15.0 °F 6.3 °F 30.59 in SSW 6.0 mph 14.0 mph 68% 0.00 in
06:44 15.0 °F 6.3 °F 30.59 in SSW 8.0 mph 15.0 mph 68% 0.00 in
06:49 14.9 °F 6.2 °F 30.59 in SSW 8.0 mph 15.0 mph 68% 0.00 in
06:59 14.8 °F 6.1 °F 30.59 in South 6.0 mph 11.0 mph 68% 0.00 in
07:04 14.8 °F 5.8 °F 30.59 in South 7.0 mph 14.0 mph 67% 0.00 in
07:09 14.7 °F 5.4 °F 30.59 in SSW 7.0 mph 14.0 mph 66% 0.00 in
07:14 14.6 °F 5.6 °F 30.59 in SSW 7.0 mph 14.0 mph 67% 0.00 in
07:24 14.5 °F 5.5 °F 30.58 in SW 8.0 mph 12.0 mph 67% 0.00 in
07:29 14.4 °F 5.1 °F 30.58 in SSW 7.0 mph 13.0 mph 66% 0.00 in
07:34 14.4 °F 5.4 °F 30.58 in SSW 7.0 mph 13.0 mph 67% 0.00 in
07:39 14.4 °F 5.1 °F 30.58 in SW 5.0 mph 13.0 mph 66% 0.00 in
07:44 14.3 °F 5.0 °F 30.58 in SSW 6.0 mph 16.0 mph 66% 0.00 in
07:49 14.3 °F 5.0 °F 30.57 in SSW 7.0 mph 16.0 mph 66% 0.00 in
07:54 14.3 °F 5.0 °F 30.57 in SSW 3.0 mph 15.0 mph 66% 0.00 in
07:59 14.3 °F 5.0 °F 30.57 in SSW 6.0 mph 15.0 mph 66% 0.00 in
08:04 14.3 °F 5.0 °F 30.57 in SSW 6.0 mph 17.0 mph 66% 0.00 in
08:09 14.3 °F 5.0 °F 30.56 in South 9.0 mph 12.0 mph 66% 0.00 in
08:14 14.3 °F 5.0 °F 30.56 in South 5.0 mph 14.0 mph 66% 0.00 in
08:19 14.4 °F 5.4 °F 30.56 in South 9.0 mph 13.0 mph 67% 0.00 in
08:24 14.4 °F 5.4 °F 30.56 in South 3.0 mph 12.0 mph 67% 0.00 in
08:29 14.5 °F 5.9 °F 30.56 in SSW 6.0 mph 12.0 mph 68% 0.00 in
08:34 14.6 °F 5.3 °F 30.56 in SSW 5.0 mph 13.0 mph 66% 0.00 in
08:39 14.7 °F 5.7 °F 30.56 in SSW 12.0 mph 15.0 mph 67% 0.00 in
08:44 14.8 °F 5.8 °F 30.55 in SSW 6.0 mph 15.0 mph 67% 0.00 in
08:49 14.9 °F 5.9 °F 30.55 in SSW 6.0 mph 13.0 mph 67% 0.00 in
08:54 14.9 °F 5.9 °F 30.55 in South 10.0 mph 16.0 mph 67% 0.00 in
09:04 15.0 °F 6.0 °F 30.55 in SSW 7.0 mph 15.0 mph 67% 0.00 in
09:14 15.3 °F 6.3 °F 30.55 in SSW 7.0 mph 11.0 mph 67% 0.00 in
09:19 15.4 °F 6.4 °F 30.55 in SSW 6.0 mph 11.0 mph 67% 0.00 in
09:24 15.4 °F 6.4 °F 30.55 in SSW 5.0 mph 12.0 mph 67% 0.00 in
09:29 15.6 °F 6.3 °F 30.54 in SSW 6.0 mph 13.0 mph 66% 0.00 in
09:34 15.7 °F 6.0 °F 30.54 in SSW 7.0 mph 13.0 mph 65% 0.00 in
09:39 15.9 °F 6.5 °F 30.53 in South 8.0 mph 13.0 mph 66% 0.00 in
09:44 16.0 °F 6.6 °F 30.54 in South 8.0 mph 14.0 mph 66% 0.00 in
09:54 16.3 °F 6.9 °F 30.53 in South 7.0 mph 13.0 mph 66% 0.00 in
09:59 16.5 °F 7.1 °F 30.53 in SSW 7.0 mph 11.0 mph 66% 0.00 in
10:04 16.6 °F 6.9 °F 30.52 in South 6.0 mph 12.0 mph 65% 0.00 in
10:09 16.8 °F 7.1 °F 30.52 in South 7.0 mph 14.0 mph 65% 0.00 in
10:14 17.0 °F 7.3 °F 30.52 in SSE 8.0 mph 15.0 mph 65% 0.00 in
10:19 17.0 °F 6.9 °F 30.52 in South 7.0 mph 16.0 mph 64% 0.00 in
10:24 17.2 °F 7.1 °F 30.52 in South 13.0 mph 14.0 mph 64% 0.00 in
10:29 17.3 °F 7.5 °F 30.52 in South 6.0 mph 15.0 mph 65% 0.00 in
10:34 17.4 °F 8.0 °F 30.52 in SW 7.0 mph 16.0 mph 66% 0.00 in
10:39 17.5 °F 8.1 °F 30.51 in SSW 7.0 mph 16.0 mph 66% 0.00 in
10:44 17.7 °F 8.6 °F 30.51 in South 9.0 mph 14.0 mph 67% 0.00 in
10:49 17.7 °F 8.6 °F 30.51 in South 11.0 mph 15.0 mph 67% 0.00 in
10:54 18.0 °F 8.2 °F 30.50 in SSW 8.0 mph 16.0 mph 65% 0.00 in
10:59 18.1 °F 8.6 °F 30.50 in SSW 8.0 mph 16.0 mph 66% 0.00 in
11:04 18.2 °F 8.7 °F 30.50 in SSW 5.0 mph 12.0 mph 66% 0.00 in
11:09 18.5 °F 9.0 °F 30.49 in South 6.0 mph 13.0 mph 66% 0.00 in
11:14 18.5 °F 8.7 °F 30.48 in South 3.0 mph 13.0 mph 65% 0.00 in
11:19 19.0 °F 9.5 °F 30.48 in South 6.0 mph 13.0 mph 66% 0.00 in
11:24 19.1 °F 9.3 °F 30.47 in South 6.0 mph 14.0 mph 65% 0.00 in
11:29 19.3 °F 9.1 °F 30.47 in South 4.0 mph 11.0 mph 64% 0.00 in
11:34 19.6 °F 9.4 °F 30.47 in South 7.0 mph 12.0 mph 64% 0.00 in
11:39 19.7 °F 9.8 °F 30.46 in SSW 4.0 mph 13.0 mph 65% 0.00 in
11:44 19.7 °F 10.5 °F 30.46 in SSE 7.0 mph 16.0 mph 67% 0.00 in
11:49 19.7 °F 11.2 °F 30.45 in SSW 8.0 mph 16.0 mph 69% 0.00 in
11:54 19.9 °F 12.0 °F 30.45 in SSW 9.0 mph 18.0 mph 71% 0.00 in
11:59 20.4 °F 12.8 °F 30.44 in South 5.0 mph 13.0 mph 72% 0.00 in
12:04 20.8 °F 12.9 °F 30.44 in SSW 6.0 mph 13.0 mph 71% 0.00 in
12:09 21.3 °F 13.4 °F 30.44 in South 7.0 mph 14.0 mph 71% 0.00 in
12:14 21.4 °F 13.1 °F 30.44 in SSW 7.0 mph 14.0 mph 70% 0.00 in
12:19 22.0 °F 13.7 °F 30.44 in SSW 7.0 mph 13.0 mph 70% 0.00 in
12:24 22.4 °F 14.1 °F 30.43 in SSW 7.0 mph 14.0 mph 70% 0.00 in
12:29 22.5 °F 14.2 °F 30.43 in SSW 7.0 mph 14.0 mph 70% 0.00 in
12:34 22.9 °F 14.6 °F 30.42 in South 7.0 mph 14.0 mph 70% 0.00 in
12:39 23.4 °F 14.7 °F 30.42 in SSE 13.0 mph 13.0 mph 69% 0.00 in
12:44 23.5 °F 14.8 °F 30.42 in SW 5.0 mph 14.0 mph 69% 0.00 in
12:49 23.1 °F 14.4 °F 30.42 in SSW 6.0 mph 14.0 mph 69% 0.00 in
12:54 23.3 °F 14.6 °F 30.42 in South 6.0 mph 11.0 mph 69% 0.00 in
12:59 23.6 °F 14.6 °F 30.41 in West 8.0 mph 14.0 mph 68% 0.00 in
13:04 23.5 °F 14.1 °F 30.41 in SW 8.0 mph 16.0 mph 67% 0.00 in
13:14 23.5 °F 13.8 °F 30.41 in SSW 8.0 mph 21.0 mph 66% 0.00 in
13:19 23.6 °F 13.9 °F 30.42 in SSW 7.0 mph 21.0 mph 66% 0.00 in
13:24 23.6 °F 14.2 °F 30.41 in SSW 6.0 mph 14.0 mph 67% 0.00 in
13:29 23.8 °F 13.4 °F 30.41 in SSW 7.0 mph 14.0 mph 64% 0.00 in
13:34 23.9 °F 13.1 °F 30.41 in SSW 6.0 mph 16.0 mph 63% 0.00 in
13:39 23.8 °F 12.7 °F 30.41 in SSW 8.0 mph 16.0 mph 62% 0.00 in
13:44 23.9 °F 12.0 °F 30.41 in SW 7.0 mph 18.0 mph 60% 0.00 in
13:49 24.5 °F 12.2 °F 30.41 in South 4.0 mph 18.0 mph 59% 0.00 in
13:54 24.8 °F 12.1 °F 30.41 in SSW 6.0 mph 19.0 mph 58% 0.00 in
13:59 25.1 °F 12.4 °F 30.41 in SW 9.0 mph 12.0 mph 58% 0.00 in
14:04 25.7 °F 12.6 °F 30.41 in SW 5.0 mph 12.0 mph 57% 0.00 in
14:09 25.6 °F 12.1 °F 30.41 in SSW 6.0 mph 15.0 mph 56% 0.00 in
14:14 25.9 °F 11.5 °F 30.41 in SSW 7.0 mph 19.0 mph 54% 0.00 in
14:19 26.1 °F 11.7 °F 30.41 in SSW 8.0 mph 19.0 mph 54% 0.00 in
14:24 26.1 °F 11.3 °F 30.40 in SSW 8.0 mph 17.0 mph 53% 0.00 in
14:29 26.2 °F 11.4 °F 30.41 in SSW 8.0 mph 17.0 mph 53% 0.00 in
14:34 26.4 °F 11.6 °F 30.41 in South 6.0 mph 13.0 mph 53% 0.00 in
14:39 26.4 °F 11.1 °F 30.41 in SSW 6.0 mph 13.0 mph 52% 0.00 in
14:44 26.3 °F 11.5 °F 30.41 in WSW 5.0 mph 10.0 mph 53% 0.00 in
14:49 26.4 °F 11.1 °F 30.41 in SW 4.0 mph 14.0 mph 52% 0.00 in
14:54 26.0 °F 10.8 °F 30.41 in WSW 8.0 mph 15.0 mph 52% 0.00 in
14:59 25.9 °F 11.5 °F 30.41 in WSW 10.0 mph 12.0 mph 54% 0.00 in
15:04 25.9 °F 11.5 °F 30.41 in SW 5.0 mph 14.0 mph 54% 0.00 in
15:09 26.2 °F 10.9 °F 30.41 in SW 20.0 mph 20.0 mph 52% 0.00 in
15:14 26.3 °F 11.0 °F 30.41 in SW 7.0 mph 20.0 mph 52% 0.00 in
15:19 26.4 °F 11.6 °F 30.42 in SW 8.0 mph 20.0 mph 53% 0.00 in
15:24 26.4 °F 11.6 °F 30.42 in SW 8.0 mph 15.0 mph 53% 0.00 in
15:29 26.6 °F 11.7 °F 30.42 in SW 8.0 mph 18.0 mph 53% 0.00 in
15:34 26.5 °F 12.1 °F 30.42 in SW 9.0 mph 18.0 mph 54% 0.00 in
15:39 26.4 °F 12.0 °F 30.42 in SW 8.0 mph 17.0 mph 54% 0.00 in
15:44 26.4 °F 11.6 °F 30.43 in SW 8.0 mph 20.0 mph 53% 0.00 in
15:54 26.2 °F 12.2 °F 30.43 in SSW 8.0 mph 17.0 mph 55% 0.00 in
15:59 26.0 °F 12.0 °F 30.43 in SW 10.0 mph 21.0 mph 55% 0.00 in
16:04 25.9 °F 11.9 °F 30.43 in SW 9.0 mph 21.0 mph 55% 0.00 in
16:09 25.7 °F 11.7 °F 30.43 in SSW 5.0 mph 20.0 mph 55% 0.00 in
16:14 25.4 °F 11.9 °F 30.43 in South 10.0 mph 17.0 mph 56% 0.00 in
16:19 25.4 °F 12.3 °F 30.43 in SW 7.0 mph 19.0 mph 57% 0.00 in
16:24 25.3 °F 12.2 °F 30.43 in SW 9.0 mph 19.0 mph 57% 0.00 in
16:29 25.3 °F 12.6 °F 30.43 in SW 7.0 mph 16.0 mph 58% 0.00 in
16:34 25.1 °F 12.8 °F 30.43 in SW 6.0 mph 17.0 mph 59% 0.00 in
16:39 25.1 °F 12.4 °F 30.43 in SW 7.0 mph 17.0 mph 58% 0.00 in
16:44 25.1 °F 12.4 °F 30.43 in SSW 7.0 mph 17.0 mph 58% 0.00 in
16:49 25.1 °F 12.4 °F 30.43 in SW 7.0 mph 15.0 mph 58% 0.00 in
16:54 25.1 °F 12.4 °F 30.43 in South 4.0 mph 15.0 mph 58% 0.00 in
16:59 25.2 °F 12.5 °F 30.44 in SW 6.0 mph 10.0 mph 58% 0.00 in
17:04 25.1 °F 12.0 °F 30.44 in WSW 3.0 mph 12.0 mph 57% 0.00 in
17:09 24.9 °F 11.8 °F 30.44 in SSW 5.0 mph 11.0 mph 57% 0.00 in
17:14 24.9 °F 11.4 °F 30.44 in SSE 9.0 mph 16.0 mph 56% 0.00 in
17:19 24.8 °F 11.7 °F 30.44 in SSW 7.0 mph 10.0 mph 57% 0.00 in
17:24 24.7 °F 11.6 °F 30.44 in SSW 5.0 mph 10.0 mph 57% 0.00 in
17:29 24.5 °F 11.8 °F 30.43 in SSW 4.0 mph 10.0 mph 58% 0.00 in
17:34 24.3 °F 11.2 °F 30.44 in SSW 4.0 mph 9.0 mph 57% 0.00 in
17:39 24.4 °F 10.9 °F 30.44 in WSW 6.0 mph 13.0 mph 56% 0.00 in
17:44 24.5 °F 11.0 °F 30.44 in SSW 6.0 mph 11.0 mph 56% 0.00 in
17:49 24.4 °F 10.5 °F 30.44 in SSW 5.0 mph 11.0 mph 55% 0.00 in
17:54 24.3 °F 10.4 °F 30.44 in SSW 6.0 mph 11.0 mph 55% 0.00 in
17:59 24.3 °F 10.4 °F 30.44 in SSW 5.0 mph 11.0 mph 55% 0.00 in
18:04 24.2 °F 10.3 °F 30.44 in SSW 5.0 mph 11.0 mph 55% 0.00 in
18:09 24.0 °F 10.6 °F 30.44 in SSW 2.0 mph 9.0 mph 56% 0.00 in
18:14 23.8 °F 10.8 °F 30.44 in SSW 4.0 mph 9.0 mph 57% 0.00 in
18:19 23.6 °F 10.2 °F 30.44 in South 5.0 mph 8.0 mph 56% 0.00 in
18:24 23.5 °F 10.1 °F 30.44 in SSW 4.0 mph 10.0 mph 56% 0.00 in
18:29 23.4 °F 10.0 °F 30.44 in SSW 4.0 mph 10.0 mph 56% 0.00 in
18:34 23.2 °F 9.8 °F 30.44 in South 5.0 mph 9.0 mph 56% 0.00 in
18:39 23.1 °F 9.7 °F 30.44 in SSW 5.0 mph 8.0 mph 56% 0.00 in
18:44 22.9 °F 9.9 °F 30.44 in SSW 5.0 mph 8.0 mph 57% 0.00 in
18:54 22.7 °F 9.7 °F 30.44 in SSW 5.0 mph 11.0 mph 57% 0.00 in
18:59 22.6 °F 9.6 °F 30.44 in South 5.0 mph 11.0 mph 57% 0.00 in
19:04 22.3 °F 9.7 °F 30.44 in South 2.0 mph 7.0 mph 58% 0.00 in
19:09 21.9 °F 9.4 °F 30.44 in South 2.0 mph 6.0 mph 58% 0.00 in
19:14 21.7 °F 9.2 °F 30.44 in SSW 3.0 mph 6.0 mph 58% 0.00 in
19:19 21.7 °F 9.2 °F 30.44 in South 4.0 mph 8.0 mph 58% 0.00 in
19:24 21.8 °F 9.7 °F 30.44 in South 4.0 mph 8.0 mph 59% 0.00 in
19:29 21.6 °F 9.5 °F 30.44 in South 4.0 mph 8.0 mph 59% 0.00 in
19:34 21.6 °F 9.5 °F 30.44 in South 4.0 mph 7.0 mph 59% 0.00 in
19:39 21.6 °F 9.5 °F 30.44 in SSW 4.0 mph 7.0 mph 59% 0.00 in
19:44 21.5 °F 9.4 °F 30.44 in SSW 2.0 mph 5.0 mph 59% 0.00 in
19:49 21.4 °F 9.7 °F 30.44 in South 5.0 mph 6.0 mph 60% 0.00 in
19:54 21.2 °F 9.5 °F 30.44 in South 3.0 mph 6.0 mph 60% 0.00 in
19:59 21.2 °F 9.5 °F 30.44 in South 3.0 mph 6.0 mph 60% 0.00 in
20:04 21.2 °F 9.5 °F 30.44 in South 3.0 mph 6.0 mph 60% 0.00 in
20:09 21.2 °F 9.5 °F 30.43 in SSW 3.0 mph 6.0 mph 60% 0.00 in
20:14 21.1 °F 9.4 °F 30.44 in SSW 5.0 mph 5.0 mph 60% 0.00 in
20:19 21.2 °F 9.5 °F 30.43 in South 4.0 mph 6.0 mph 60% 0.00 in
20:24 21.4 °F 9.3 °F 30.44 in SSW 3.0 mph 6.0 mph 59% 0.00 in
20:29 21.3 °F 9.2 °F 30.44 in SSW 3.0 mph 7.0 mph 59% 0.00 in
20:34 21.3 °F 9.2 °F 30.44 in SSW 3.0 mph 7.0 mph 59% 0.00 in
20:39 21.1 °F 9.0 °F 30.44 in WSW 3.0 mph 4.0 mph 59% 0.00 in
20:44 21.0 °F 8.9 °F 30.44 in South 5.0 mph 5.0 mph 59% 0.00 in
20:49 21.0 °F 8.9 °F 30.44 in SSW 3.0 mph 7.0 mph 59% 0.00 in
20:54 20.9 °F 8.8 °F 30.44 in South 3.0 mph 5.0 mph 59% 0.00 in
20:59 20.7 °F 8.6 °F 30.44 in SW 3.0 mph 5.0 mph 59% 0.00 in
21:09 20.3 °F 9.0 °F 30.45 in South 2.0 mph 5.0 mph 61% 0.00 in
21:14 20.2 °F 8.9 °F 30.44 in South 2.0 mph 5.0 mph 61% 0.00 in
21:19 20.1 °F 8.8 °F 30.44 in South 2.0 mph 4.0 mph 61% 0.00 in
21:24 20.2 °F 8.9 °F 30.44 in SSW 3.0 mph 4.0 mph 61% 0.00 in
21:29 20.2 °F 8.9 °F 30.44 in SSW 1.0 mph 4.0 mph 61% 0.00 in
21:34 20.0 °F 8.7 °F 30.45 in South 1.0 mph 5.0 mph 61% 0.00 in
21:39 20.4 °F 8.7 °F 30.45 in South 4.0 mph 5.0 mph 60% 0.00 in
21:44 20.4 °F 8.7 °F 30.45 in South 1.0 mph 5.0 mph 60% 0.00 in
21:49 20.1 °F 8.8 °F 30.45 in South 2.0 mph 3.0 mph 61% 0.00 in
21:54 19.9 °F 8.6 °F 30.45 in South 2.0 mph 4.0 mph 61% 0.00 in
21:59 19.9 °F 8.6 °F 30.45 in South 4.0 mph 4.0 mph 61% 0.00 in
22:04 20.0 °F 8.7 °F 30.45 in South 2.0 mph 4.0 mph 61% 0.00 in
22:09 20.0 °F 8.7 °F 30.45 in South 2.0 mph 5.0 mph 61% 0.00 in
22:14 19.9 °F 8.6 °F 30.45 in South 2.0 mph 5.0 mph 61% 0.00 in
22:19 19.9 °F 8.6 °F 30.45 in South 3.0 mph 5.0 mph 61% 0.00 in
22:24 19.8 °F 8.5 °F 30.44 in South 3.0 mph 5.0 mph 61% 0.00 in
22:29 19.8 °F 8.5 °F 30.44 in South 3.0 mph 5.0 mph 61% 0.00 in
22:34 19.8 °F 8.5 °F 30.43 in South 3.0 mph 5.0 mph 61% 0.00 in
22:39 19.7 °F 8.4 °F 30.44 in South 1.0 mph 5.0 mph 61% 0.00 in
22:44 19.6 °F 8.3 °F 30.43 in South 3.0 mph 5.0 mph 61% 0.00 in
22:49 19.6 °F 8.3 °F 30.43 in South 1.0 mph 4.0 mph 61% 0.00 in
22:54 19.7 °F 8.0 °F 30.43 in SSE 2.0 mph 4.0 mph 60% 0.00 in
22:59 19.5 °F 8.2 °F 30.42 in SSW 2.0 mph 4.0 mph 61% 0.00 in
23:04 19.4 °F 8.1 °F 30.42 in South 2.0 mph 4.0 mph 61% 0.00 in
23:09 19.3 °F 8.0 °F 30.42 in South 1.0 mph 4.0 mph 61% 0.00 in
23:14 19.2 °F 8.3 °F 30.41 in South 2.0 mph 5.0 mph 62% 0.00 in
23:19 19.1 °F 8.2 °F 30.41 in South 2.0 mph 5.0 mph 62% 0.00 in
23:24 19.2 °F 7.9 °F 30.41 in South 2.0 mph 5.0 mph 61% 0.00 in
23:29 19.2 °F 8.3 °F 30.41 in SSE 2.0 mph 4.0 mph 62% 0.00 in
23:34 19.3 °F 8.0 °F 30.41 in South 2.0 mph 4.0 mph 61% 0.00 in
23:39 19.2 °F 8.3 °F 30.41 in South 3.0 mph 3.0 mph 62% 0.00 in
23:49 18.9 °F 8.0 °F 30.41 in South 1.0 mph 3.0 mph 62% 0.00 in
23:54 18.7 °F 8.2 °F 30.41 in South 1.0 mph 3.0 mph 63% 0.00 in
23:59 18.4 °F 8.2 °F 30.41 in South 1.0 mph 2.0 mph 64% 0.00 in
Buffalo, New York, USA
Compliments of Weather Underground - 2.25 mb